This is the latest recevied weather packets stored in our database for station/object N9OJR. If no packets are shown the sender has not sent any weather packets the latest 10 day(s).
| Time | Temp. | Humidity | Pressure | Rain* | Wind** | Luminosity | Snow |
|---|---|---|---|---|---|---|---|
| 1778075916 | 7.22° C | 99% | 1006.9 hPa | 0 mm | - | 152 W/m² | - |
| 1778075613 | 7.22° C | 99% | 1007 hPa | 0 mm | - | 143 W/m² | - |
| 1778075309 | 7.22° C | 99% | 1006.8 hPa | 0 mm | - | 142 W/m² | - |
| 1778075006 | 7.22° C | 99% | 1006.7 hPa | 0 mm | - | 135 W/m² | - |
| 1778074703 | 7.22° C | 99% | 1006.9 hPa | 0 mm | - | 115 W/m² | - |
| 1778074400 | 7.78° C | 99% | 1007 hPa | 0 mm | - | 105 W/m² | - |
| 1778074096 | 7.22° C | 99% | 1006.9 hPa | 0 mm | - | 101 W/m² | - |
| 1778073794 | 7.22° C | 99% | 1006.6 hPa | 0 mm | - | 163 W/m² | - |
| 1778073492 | 7.78° C | 99% | 1006.5 hPa | 0 mm | - | 167 W/m² | - |
| 1778073187 | 7.22° C | 99% | 1006.5 hPa | 0 mm | - | 142 W/m² | - |
| 1778072885 | 7.22° C | 99% | 1006.4 hPa | 0 mm | - | 140 W/m² | - |
| 1778072581 | 7.22° C | 99% | 1006.5 hPa | 0 mm | - | 86 W/m² | - |
| 1778072279 | 7.22° C | 99% | 1005.8 hPa | 0 mm | - | 113 W/m² | - |
| 1778071977 | 7.22° C | 99% | 1006 hPa | 0 mm | - | 81 W/m² | - |
| 1778071675 | 7.22° C | 99% | 1006 hPa | 0 mm | - | 102 W/m² | - |
| 1778071372 | 7.22° C | 99% | 1006.2 hPa | 0 mm | - | 96 W/m² | - |
| 1778071070 | 7.22° C | 99% | 1005.8 hPa | 0 mm | - | 94 W/m² | - |
| 1778070768 | 7.22° C | 99% | 1005.7 hPa | 0 mm | - | 75 W/m² | - |
| 1778070465 | 7.22° C | 99% | 1005.9 hPa | 0 mm | - | 100 W/m² | - |
| 1778070162 | 7.22° C | 99% | 1005.8 hPa | 0 mm | - | 77 W/m² | - |
| 1778069860 | 7.22° C | 99% | 1005.3 hPa | 0 mm | - | 88 W/m² | - |
| 1778069556 | 7.22° C | 99% | 1005.6 hPa | 0 mm | - | 184 W/m² | - |
| 1778069253 | 6.67° C | 99% | 1005.4 hPa | 0 mm | - | 83 W/m² | - |
| 1778068951 | 6.67° C | 99% | 1005.5 hPa | 0 mm | - | 44 W/m² | - |
| 1778068649 | 6.67° C | 99% | 1005.2 hPa | 0 mm | - | 37 W/m² | - |
* Rain latest hour (hover to see other rain measurements)
** Current wind speed in m/s (hover to see current wind gust speed)